WJA095 CYHM-CYOW

Flight info

Callsign WJA095
Flight time 0h 45m
Altitude 29000
Route DUROT DCT UKPAG DCT MIVOK CAPTL5
Aircraft B738/M-SDE2E3FGHIRWXY/LB1

Departure

Time 2026-04-28 18:05
Airport John C. Munro Hamilton International Airport (CYHM)

Arrival

Time 2026-04-28 18:50
Airport Ottawa Macdonald-Cartier International Airport (CYOW)
Time Latitude Longitude Altitude Speed Heading
2026-04-28 17:35 43.16462 -79.92729 773 ft 0 kts 196°
2026-04-28 17:51 43.16472 -79.92726 773 ft 2 kts 192°
2026-04-28 17:52 43.16486 -79.92721 773 ft 2 kts 198°
2026-04-28 17:52 43.16501 -79.92715 773 ft 2 kts 195°
2026-04-28 17:52 43.16524 -79.92709 773 ft 2 kts 166°
2026-04-28 17:53 43.16538 -79.92717 773 ft 2 kts 139°
2026-04-28 17:53 43.16547 -79.92732 773 ft 1 kts 112°
2026-04-28 17:53 43.16549 -79.92741 774 ft 1 kts 103°
2026-04-28 17:53 43.16550 -79.92744 774 ft 0 kts 106°
2026-04-28 17:55 43.16549 -79.92740 773 ft 3 kts 107°
2026-04-28 17:55 43.16536 -79.92684 772 ft 0 kts 108°
2026-04-28 17:58 43.16530 -79.92657 772 ft 6 kts 108°
2026-04-28 17:58 43.16520 -79.92613 772 ft 0 kts 105°
2026-04-28 17:59 43.16519 -79.92602 772 ft 5 kts 93°
2026-04-28 17:59 43.16540 -79.92544 772 ft 9 kts 48°
2026-04-28 17:59 43.16610 -79.92513 772 ft 12 kts 341°
2026-04-28 17:59 43.16659 -79.92545 773 ft 0 kts 331°
2026-04-28 18:00 43.16667 -79.92551 773 ft 3 kts 331°
2026-04-28 18:00 43.16740 -79.92608 774 ft 20 kts 329°
2026-04-28 18:00 43.16896 -79.92731 776 ft 20 kts 330°
2026-04-28 18:00 43.16997 -79.92810 778 ft 15 kts 330°
2026-04-28 18:01 43.17157 -79.92936 779 ft 38 kts 330°
2026-04-28 18:01 43.17258 -79.93014 779 ft 0 kts 330°
2026-04-28 18:02 43.17285 -79.93036 779 ft 13 kts 330°
2026-04-28 18:02 43.17376 -79.93120 781 ft 14 kts 305°
2026-04-28 18:02 43.17422 -79.93291 782 ft 27 kts 287°
2026-04-28 18:02 43.17481 -79.93555 781 ft 26 kts 288°
2026-04-28 18:03 43.17582 -79.93676 780 ft 24 kts 15°
2026-04-28 18:03 43.17691 -79.93699 781 ft 20 kts 297°
2026-04-28 18:03 43.17745 -79.93923 778 ft 26 kts 287°
2026-04-28 18:03 43.17818 -79.94237 773 ft 44 kts 287°
2026-04-28 18:04 43.17910 -79.94643 770 ft 35 kts 290°
2026-04-28 18:04 43.17931 -79.94764 768 ft 7 kts 168°
2026-04-28 18:04 43.17913 -79.94666 770 ft 18 kts 101°
2026-04-28 18:04 43.17903 -79.94613 771 ft 0 kts 106°
2026-04-28 18:05 43.17890 -79.94553 772 ft 22 kts 107°
2026-04-28 18:05 43.17802 -79.94179 774 ft 100 kts 108°
2026-04-28 18:05 43.17393 -79.92262 1051 ft 186 kts 109°
2026-04-28 18:05 43.17092 -79.90535 1479 ft 193 kts 108°
2026-04-28 18:06 43.16813 -79.88690 1885 ft 202 kts 107°
2026-04-28 18:06 43.16620 -79.86788 2444 ft 203 kts 101°
2026-04-28 18:06 43.16551 -79.84842 2605 ft 209 kts 96°
2026-04-28 18:06 43.16573 -79.82788 2679 ft 214 kts 93°
2026-04-28 18:07 43.16657 -79.80845 3004 ft 203 kts 91°
2026-04-28 18:07 43.16784 -79.78889 2976 ft 209 kts 90°
2026-04-28 18:07 43.16916 -79.76965 3210 ft 193 kts 90°
2026-04-28 18:07 43.17018 -79.75162 3186 ft 195 kts 92°
2026-04-28 18:08 43.16938 -79.73283 3249 ft 205 kts 105°
2026-04-28 18:08 43.16733 -79.71387 4198 ft 205 kts 102°
2026-04-28 18:08 43.16606 -79.69457 5074 ft 208 kts 97°
2026-04-28 18:08 43.16524 -79.67438 5836 ft 222 kts 95°
2026-04-28 18:09 43.16438 -79.65290 6617 ft 237 kts 94°
2026-04-28 18:09 43.16340 -79.63004 7399 ft 251 kts 94°
2026-04-28 18:09 43.16232 -79.60545 8172 ft 265 kts 92°
2026-04-28 18:09 43.16125 -79.57982 8916 ft 277 kts 92°
2026-04-28 18:10 43.16017 -79.55330 9677 ft 285 kts 91°
2026-04-28 18:10 43.15904 -79.52608 10435 ft 296 kts 91°
2026-04-28 18:10 43.15785 -79.49748 11177 ft 312 kts 90°
2026-04-28 18:10 43.15661 -79.46728 11934 ft 327 kts 89°
2026-04-28 18:11 43.15387 -79.40359 13431 ft 344 kts 88°
2026-04-28 18:11 43.15237 -79.37057 14193 ft 348 kts 87°
2026-04-28 18:11 43.15086 -79.33762 14944 ft 352 kts 88°
2026-04-28 18:12 43.14993 -79.30452 15690 ft 350 kts 82°
2026-04-28 18:12 43.15297 -79.27166 16444 ft 343 kts 65°
2026-04-28 18:12 43.16386 -79.24430 17195 ft 321 kts 38°
2026-04-28 18:12 43.18080 -79.22625 17955 ft 305 kts 20°
2026-04-28 18:13 43.19941 -79.21265 18703 ft 308 kts 19°
2026-04-28 18:13 43.21832 -79.19891 19453 ft 309 kts 19°
2026-04-28 18:13 43.23695 -79.18489 20191 ft 313 kts 20°
2026-04-28 18:13 43.25603 -79.17017 20940 ft 317 kts 20°
2026-04-28 18:14 43.27515 -79.15524 21685 ft 320 kts 20°
2026-04-28 18:14 43.29456 -79.14002 22435 ft 322 kts 20°
2026-04-28 18:14 43.31382 -79.12489 23178 ft 324 kts 20°
2026-04-28 18:14 43.33337 -79.10953 23925 ft 326 kts 20°
2026-04-28 18:15 43.35295 -79.09415 24674 ft 327 kts 20°
2026-04-28 18:15 43.37272 -79.07858 25438 ft 328 kts 20°
2026-04-28 18:15 43.39217 -79.06323 26202 ft 327 kts 20°
2026-04-28 18:15 43.41198 -79.04756 26983 ft 326 kts 20°
2026-04-28 18:16 43.43133 -79.03223 27749 ft 323 kts 20°
2026-04-28 18:16 43.45061 -79.01693 28520 ft 320 kts 20°
2026-04-28 18:16 43.46997 -79.00160 29143 ft 321 kts 20°
2026-04-28 18:16 43.48930 -78.98641 29263 ft 327 kts 19°
2026-04-28 18:17 43.52987 -78.95458 29254 ft 343 kts 20°
2026-04-28 18:17 43.57189 -78.92139 29250 ft 350 kts 20°
2026-04-28 18:18 43.61389 -78.88794 29249 ft 351 kts 20°
2026-04-28 18:18 43.64901 -78.85997 29251 ft 349 kts 20°
2026-04-28 18:19 43.69539 -78.81334 29249 ft 367 kts 36°
2026-04-28 18:19 43.72800 -78.75809 29243 ft 376 kts 42°
2026-04-28 18:20 43.75903 -78.70007 29248 ft 375 kts 43°
2026-04-28 18:20 43.79008 -78.64230 29246 ft 375 kts 42°
2026-04-28 18:21 43.82138 -78.58482 29244 ft 374 kts 41°
2026-04-28 18:21 43.85276 -78.52756 29245 ft 373 kts 41°
2026-04-28 18:22 43.88435 -78.47001 29244 ft 373 kts 41°
2026-04-28 18:22 43.91566 -78.41282 29249 ft 372 kts 41°
2026-04-28 18:23 43.94697 -78.35560 29253 ft 375 kts 41°
2026-04-28 18:23 43.97910 -78.29700 29252 ft 388 kts 42°
2026-04-28 18:24 44.00658 -78.24678 29253 ft 398 kts 42°
2026-04-28 18:24 44.04619 -78.17404 29255 ft 410 kts 42°
2026-04-28 18:25 44.08084 -78.11015 29251 ft 420 kts 43°
2026-04-28 18:26 44.13456 -78.01085 29247 ft 435 kts 43°
2026-04-28 18:26 44.17147 -77.94241 29248 ft 443 kts 43°
2026-04-28 18:27 44.20811 -77.87407 29255 ft 441 kts 43°
2026-04-28 18:27 44.24494 -77.80520 29260 ft 440 kts 43°
2026-04-28 18:28 44.28145 -77.73694 29261 ft 441 kts 43°
2026-04-28 18:28 44.31802 -77.66843 29030 ft 440 kts 43°
2026-04-28 18:28 44.33621 -77.63426 28781 ft 438 kts 43°
2026-04-28 18:29 44.35423 -77.60036 28531 ft 436 kts 43°
2026-04-28 18:29 44.37219 -77.56586 28278 ft 440 kts 44°
2026-04-28 18:29 44.38928 -77.53059 28028 ft 441 kts 46°
2026-04-28 18:29 44.40590 -77.49463 27779 ft 441 kts 47°
2026-04-28 18:30 44.42226 -77.45843 27529 ft 440 kts 47°
2026-04-28 18:30 44.43309 -77.43438 27362 ft 441 kts 47°
2026-04-28 18:30 44.45461 -77.38658 26784 ft 440 kts 47°
2026-04-28 18:30 44.47096 -77.35037 26156 ft 436 kts 47°
2026-04-28 18:31 44.48711 -77.31472 25525 ft 432 kts 47°
2026-04-28 18:31 44.50304 -77.27972 24918 ft 429 kts 47°
2026-04-28 18:31 44.51896 -77.24487 24315 ft 429 kts 47°
2026-04-28 18:31 44.53497 -77.20992 23695 ft 427 kts 47°
2026-04-28 18:32 44.55110 -77.17471 23071 ft 422 kts 47°
2026-04-28 18:32 44.56663 -77.14070 22455 ft 418 kts 47°
2026-04-28 18:32 44.58219 -77.10661 21825 ft 413 kts 47°
2026-04-28 18:32 44.59766 -77.07267 21193 ft 410 kts 47°
2026-04-28 18:33 44.61285 -77.03930 20565 ft 407 kts 47°
2026-04-28 18:33 44.62786 -77.00629 20260 ft 401 kts 48°
2026-04-28 18:33 44.64279 -76.97345 20242 ft 404 kts 47°
2026-04-28 18:33 44.65815 -76.94026 20235 ft 404 kts 46°
2026-04-28 18:34 44.67416 -76.90802 20165 ft 401 kts 44°
2026-04-28 18:34 44.69065 -76.87637 19724 ft 402 kts 44°
2026-04-28 18:34 44.70703 -76.84549 19076 ft 397 kts 44°
2026-04-28 18:34 44.72351 -76.81454 18464 ft 391 kts 44°
2026-04-28 18:35 44.73966 -76.78413 17983 ft 390 kts 44°
2026-04-28 18:35 44.75556 -76.75401 17493 ft 382 kts 44°
2026-04-28 18:35 44.77110 -76.72427 17003 ft 374 kts 44°
2026-04-28 18:35 44.78626 -76.69505 16507 ft 367 kts 44°
2026-04-28 18:36 44.80111 -76.66634 16008 ft 360 kts 45°
2026-04-28 18:36 44.81562 -76.63820 15476 ft 348 kts 45°
2026-04-28 18:36 44.82939 -76.61131 14984 ft 331 kts 45°
2026-04-28 18:36 44.84248 -76.58579 14489 ft 319 kts 45°
2026-04-28 18:37 44.85555 -76.56052 14033 ft 318 kts 45°
2026-04-28 18:37 44.86834 -76.53584 13531 ft 315 kts 45°
2026-04-28 18:37 44.88122 -76.51086 13021 ft 311 kts 46°
2026-04-28 18:37 44.89378 -76.48645 12516 ft 309 kts 46°
2026-04-28 18:38 44.90621 -76.46223 12008 ft 306 kts 46°
2026-04-28 18:38 44.91859 -76.43816 11499 ft 303 kts 47°
2026-04-28 18:38 44.93097 -76.41416 10984 ft 300 kts 47°
2026-04-28 18:38 44.94316 -76.39049 10559 ft 294 kts 47°
2026-04-28 18:39 44.95500 -76.36806 10337 ft 281 kts 46°
2026-04-28 18:39 44.96679 -76.34654 10045 ft 273 kts 46°
2026-04-28 18:39 44.97839 -76.32571 9739 ft 270 kts 47°
2026-04-28 18:39 44.98991 -76.30496 9430 ft 269 kts 47°
2026-04-28 18:40 45.00139 -76.28413 9117 ft 268 kts 48°
2026-04-28 18:40 45.01267 -76.26350 8808 ft 267 kts 48°
2026-04-28 18:40 45.02401 -76.24267 8502 ft 261 kts 49°
2026-04-28 18:40 45.03467 -76.22299 8199 ft 250 kts 49°
2026-04-28 18:41 45.04510 -76.20374 7880 ft 242 kts 49°
2026-04-28 18:41 45.05514 -76.18522 7566 ft 235 kts 49°
2026-04-28 18:41 45.06493 -76.16718 7254 ft 229 kts 49°
2026-04-28 18:41 45.07447 -76.14959 6945 ft 228 kts 49°
2026-04-28 18:42 45.08404 -76.13194 6640 ft 225 kts 50°
2026-04-28 18:42 45.09345 -76.11459 6344 ft 219 kts 50°
2026-04-28 18:42 45.10264 -76.09763 6047 ft 213 kts 51°
2026-04-28 18:42 45.11149 -76.08122 5760 ft 208 kts 51°
2026-04-28 18:43 45.12013 -76.06509 5476 ft 204 kts 52°
2026-04-28 18:43 45.12857 -76.04911 5212 ft 202 kts 52°
2026-04-28 18:43 45.13699 -76.03330 4929 ft 201 kts 52°
2026-04-28 18:43 45.14543 -76.01759 4640 ft 200 kts 52°
2026-04-28 18:44 45.15382 -76.00204 4357 ft 199 kts 52°
2026-04-28 18:44 45.17057 -75.97102 3788 ft 198 kts 53°
2026-04-28 18:44 45.17874 -75.95582 3533 ft 191 kts 54°
2026-04-28 18:45 45.18679 -75.94078 3271 ft 186 kts 54°
2026-04-28 18:45 45.19453 -75.92621 3260 ft 187 kts 55°
2026-04-28 18:45 45.20235 -75.91148 3264 ft 186 kts 55°
2026-04-28 18:45 45.21021 -75.89684 3264 ft 186 kts 54°
2026-04-28 18:46 45.21801 -75.88242 3261 ft 186 kts 54°
2026-04-28 18:46 45.22573 -75.86768 3261 ft 186 kts 56°
2026-04-28 18:46 45.23304 -75.85278 3259 ft 177 kts 57°
2026-04-28 18:46 45.23954 -75.83931 3266 ft 154 kts 58°
2026-04-28 18:47 45.24554 -75.82673 3265 ft 153 kts 58°
2026-04-28 18:47 45.25141 -75.81442 3202 ft 149 kts 58°
2026-04-28 18:47 45.25732 -75.80227 2794 ft 149 kts 57°
2026-04-28 18:47 45.26304 -75.79035 2532 ft 145 kts 61°
2026-04-28 18:48 45.26801 -75.77793 2334 ft 144 kts 66°
2026-04-28 18:48 45.27280 -75.76545 2251 ft 143 kts 65°
2026-04-28 18:48 45.27786 -75.75311 2040 ft 144 kts 63°
2026-04-28 18:48 45.28287 -75.74097 1827 ft 143 kts 63°
2026-04-28 18:49 45.28820 -75.72879 1545 ft 145 kts 63°
2026-04-28 18:49 45.29162 -75.72081 1379 ft 141 kts 63°
2026-04-28 18:49 45.29827 -75.70486 1045 ft 139 kts 62°
2026-04-28 18:49 45.30357 -75.69353 832 ft 134 kts 62°
2026-04-28 18:50 45.30854 -75.68229 630 ft 134 kts 62°
2026-04-28 18:50 45.31357 -75.67090 401 ft 137 kts 60°
2026-04-28 18:50 45.31811 -75.66045 372 ft 91 kts 56°
2026-04-28 18:50 45.32011 -75.65614 374 ft 39 kts 57°
2026-04-28 18:51 45.32051 -75.65527 373 ft 1 kts 57°
2026-04-28 18:51 45.32090 -75.65450 374 ft 21 kts 50°
2026-04-28 18:51 45.32265 -75.65269 374 ft 27 kts 27°
2026-04-28 18:51 45.32413 -75.65312 375 ft 24 kts 303°
2026-04-28 18:52 45.32430 -75.65402 377 ft 10 kts 251°
2026-04-28 18:52 45.32359 -75.65567 376 ft 17 kts 236°
2026-04-28 18:52 45.32321 -75.65610 375 ft 3 kts 191°
2026-04-28 18:52 45.32281 -75.65590 375 ft 0 kts 148°
2026-04-28 18:53 45.32280 -75.65589 375 ft 0 kts 148°
2026-04-28 18:54 45.32269 -75.65587 375 ft 9 kts 183°
2026-04-28 18:54 45.32172 -75.65762 375 ft 36 kts 237°
2026-04-28 18:54 45.32034 -75.66067 375 ft 22 kts 237°
2026-04-28 18:54 45.31963 -75.66228 374 ft 19 kts 237°
2026-04-28 18:55 45.31913 -75.66339 375 ft 14 kts 237°
2026-04-28 18:55 45.31884 -75.66427 375 ft 14 kts 262°
2026-04-28 18:55 45.31932 -75.66564 376 ft 0 kts 306°
2026-04-28 18:55 45.31963 -75.66592 377 ft 8 kts
2026-04-28 18:56 45.31981 -75.66578 376 ft 9 kts 37°
2026-04-28 18:56 45.32021 -75.66535 375 ft 1 kts 36°
2026-04-28 18:56 45.32023 -75.66532 375 ft 0 kts 36°